Theta_e
340 347 358 357 355 353 353 353 353 352 352 352 353 353 353 352 351 351 351 352 352 351 350 348 346 348 348 346 347 351 351 350 348 347 347 339 351 348 345 347 349 354 357
343 347 358 357 356 354 353 354 353 352 352 351 351 351 351 350 350 350 350 350 351 348 346 345 345 346 346 346 346 351 351 352 353 352 350 347 348 350 347 346 346 352 356
341 348 352 358 356 355 355 354 353 352 352 351 351 350 349 348 347 347 348 348 347 346 345 344 344 344 344 341 343 347 347 348 349 351 353 343 343 352 349 348 345 347 353
344 346 350 358 357 355 355 354 353 352 351 351 350 349 347 347 346 345 346 346 345 343 343 343 341 342 341 341 340 342 345 346 346 348 333 335 350 354 351 349 347 344 345
342 343 353 358 358 356 355 354 352 351 351 349 349 348 348 347 346 345 345 345 344 342 342 342 340 338 339 339 340 343 344 344 345 338 327 342 343 351 353 350 347 346 347
338 346 356 359 358 356 355 354 353 351 350 350 349 349 349 349 349 348 347 346 345 343 343 342 342 336 336 337 338 341 342 343 343 323 340 346 347 354 353 351 351 350 348
339 353 353 359 358 356 355 354 353 352 351 351 350 350 352 352 352 351 351 351 351 349 344 343 343 337 335 335 336 338 340 340 329 322 337 337 340 348 350 352 350 350 349
340 351 353 357 358 357 356 355 354 353 353 352 351 351 350 353 352 352 352 353 353 353 352 349 348 341 336 334 336 338 340 339 330 325 330 331 341 343 342 345 349 349 348
337 348 349 348 355 358 358 357 356 354 354 352 351 351 350 351 351 352 348 346 353 353 353 352 349 343 339 335 334 338 340 340 330 327 328 327 340 337 337 338 341 346 349
339 340 345 349 347 349 350 357 355 353 353 352 352 348 348 350 350 336 343 339 341 352 352 353 350 344 342 340 338 338 340 340 327 326 328 329 337 333 333 333 336 338 342
339 342 344 348 349 350 350 352 352 353 351 349 347 344 338 343 345 345 342 332 339 346 348 350 349 345 343 342 341 340 339 328 327 325 326 335 335 331 330 330 331 333 336
328 341 347 349 350 348 349 352 348 349 347 341 341 344 340 343 341 346 344 344 344 348 344 347 348 345 338 331 331 336 331 328 326 327 327 335 333 330 328 329 330 331 331
337 342 344 352 353 351 349 348 349 348 347 349 345 339 342 344 339 337 345 346 346 347 341 344 343 337 333 333 330 329 328 329 327 328 330 334 332 330 328 328 329 329 331
340 342 345 351 353 355 353 348 351 351 347 342 346 347 349 350 349 349 346 344 344 342 331 331 328 335 335 334 332 332 330 329 328 329 331 335 336 331 328 328 329 330 330
340 345 344 351 354 353 355 351 350 351 342 346 344 343 346 351 350 349 345 344 346 344 334 328 331 335 335 335 331 332 331 328 332 331 329 337 337 333 332 331 331 329 330
345 346 348 348 354 350 353 351 351 352 352 351 344 339 339 345 348 343 342 337 339 341 340 337 337 337 334 334 332 329 329 329 330 330 331 333 340 338 335 333 332 331 329
344 347 347 348 350 351 352 349 347 345 345 342 341 335 341 342 344 343 340 338 338 341 340 338 336 333 331 332 330 330 331 331 327 329 328 328 329 340 339 334 334 331 330
344 346 348 346 346 347 349 348 344 345 345 341 342 341 338 336 335 338 337 337 339 340 340 338 333 332 329 327 327 328 330 328 328 328 328 327 326 325 334 339 335 332 330
344 343 341 340 338 338 345 342 339 344 341 342 340 336 335 332 331 332 333 335 334 335 333 331 330 329 327 327 328 328 329 329 328 327 325 326 324 322 321 330 336 336 332
339 339 338 336 335 333 335 332 330 332 339 341 337 333 332 329 328 328 325 327 327 327 330 331 329 330 329 327 327 325 326 327 328 326 325 324 323 322 321 323 323 324 331
337 336 334 333 333 330 329 326 326 326 327 330 330 329 328 326 325 324 322 322 322 321 322 325 324 321 319 321 318 317 320 323 320 322 323 319 318 320 321 321 322 322 323
334 333 332 331 332 329 327 327 327 326 325 325 329 328 328 326 325 321 323 320 321 319 320 320 319 316 316 318 314 313 308 310 317 320 319 318 318 319 318 318 321 320 320
330 331 330 331 331 331 328 325 325 323 322 320 320 321 323 326 324 323 320 320 319 320 317 317 317 316 313 315 318 314 306 305 310 316 318 317 316 316 318 320 321 321 322
326 329 330 331 330 328 329 324 322 318 316 319 319 322 324 324 322 321 321 320 322 320 319 317 316 317 316 313 315 319 317 314 307 305 312 315 317 316 318 318 318 319 320
326 326 328 331 329 328 328 325 319 319 318 320 320 322 320 319 319 320 320 321 320 320 319 319 318 318 318 316 315 314 315 314 313 309 305 308 313 315 316 317 318 318 318
325 324 327 328 326 326 326 324 322 319 320 318 318 317 317 318 317 320 320 320 321 320 319 318 319 318 317 317 317 315 313 311 310 309 307 308 308 311 314 316 316 318 318
Wind_Speed
16 15 14 11 10 7 7 5 4 4 3 3 4 5 5 5 6 6 6 6 6 7 8 8 9 8 9 9 10 9 9 9 10 11 6 2 3 3 6 7 9 10 11
20 15 14 12 10 8 6 5 5 4 3 2 3 4 4 5 6 6 5 5 5 6 6 7 7 8 9 10 10 9 9 10 11 14 14 7 7 5 6 9 10 9 10
19 15 14 13 11 10 8 6 4 3 2 2 2 2 2 3 3 3 3 3 4 5 5 6 6 7 7 8 9 10 11 13 13 14 16 8 8 6 5 9 9 7 7
18 14 14 14 12 11 9 7 6 4 2 1 1 1 2 2 2 1 1 3 3 3 3 3 5 5 6 8 10 11 13 13 15 17 9 9 12 8 6 6 7 7 5
17 15 15 16 13 11 8 6 5 4 3 2 2 2 3 2 2 1 1 2 2 2 2 1 2 3 4 6 8 10 14 16 15 16 7 13 8 10 6 5 2 6 9
18 17 18 17 13 11 9 7 6 5 4 3 3 3 4 4 4 4 4 4 4 4 4 2 2 0 2 3 6 9 13 17 18 12 12 16 12 11 10 6 6 5 5
17 17 15 14 12 11 9 8 7 6 5 4 4 3 5 6 6 6 6 7 7 7 6 5 4 2 1 2 4 7 11 16 11 9 13 11 10 15 15 11 6 5 2
14 16 15 14 13 13 13 11 10 8 7 5 4 4 2 7 8 7 8 9 10 9 9 7 5 3 2 2 6 8 11 16 11 4 12 7 12 13 12 12 12 8 4
11 17 14 13 13 16 15 13 8 7 7 6 5 6 3 6 9 8 9 13 14 13 11 9 6 5 6 4 4 9 13 16 9 6 12 5 11 12 10 9 9 10 9
3 11 15 15 15 13 12 15 7 12 9 8 6 2 7 8 7 3 9 11 16 19 16 12 11 10 9 8 7 10 15 15 9 4 8 5 13 11 7 6 7 7 7
29 27 9 9 5 4 12 13 13 12 8 2 1 2 5 2 6 8 5 3 13 28 26 13 14 14 12 11 11 12 16 6 10 4 6 10 13 9 5 5 5 5 7
17 20 9 13 10 11 8 9 9 7 3 2 1 2 4 3 5 8 8 19 27 28 11 21 17 15 12 6 6 14 6 8 3 1 5 12 12 7 3 3 5 7 7
21 9 13 12 10 11 8 5 3 3 3 1 4 6 4 5 7 5 7 9 9 18 8 10 5 7 10 8 9 7 9 5 4 2 9 11 9 6 3 2 5 5 7
12 10 12 12 9 7 5 5 2 0 3 3 6 7 7 5 5 5 5 8 5 6 7 8 7 5 8 11 7 7 6 4 3 1 8 11 10 7 4 4 5 6 7
12 11 13 11 8 7 5 5 5 5 3 7 6 13 9 0 4 6 7 7 6 3 5 4 3 4 11 6 7 13 10 5 3 2 0 13 11 10 10 10 8 6 6
13 14 11 10 7 9 6 8 7 4 3 3 10 13 20 11 5 7 6 8 14 6 4 6 6 4 10 8 4 10 7 10 15 16 8 3 15 14 14 13 11 9 5
12 11 13 10 12 10 7 8 7 7 14 14 5 3 10 7 7 7 6 4 6 6 5 1 7 9 10 10 7 4 3 6 4 13 10 11 6 7 14 13 14 9 7
12 11 11 13 14 14 9 8 9 7 7 4 7 7 14 14 12 10 7 7 7 7 6 4 2 3 4 3 5 4 3 2 9 6 5 7 5 4 2 13 15 12 9
15 16 15 16 17 17 10 10 12 9 9 5 5 6 10 13 14 11 8 5 6 3 5 5 4 1 4 4 4 6 5 5 7 8 10 11 5 5 4 11 14 8 11
14 14 14 12 15 16 10 10 11 11 6 5 7 9 14 10 12 10 10 10 10 8 5 4 6 5 4 6 6 7 3 4 6 7 7 5 2 2 2 5 4 4 8
11 12 13 13 13 12 10 11 10 11 9 6 9 11 9 9 9 7 8 9 10 10 10 8 6 8 8 8 5 5 4 4 5 5 3 2 1 4 6 3 2 2 3
10 12 12 12 12 12 11 10 10 10 9 9 5 7 7 7 6 8 8 9 10 9 10 10 10 6 6 7 5 5 3 5 1 1 3 2 3 3 3 3 1 1 3
12 12 11 11 11 11 12 9 9 9 7 8 9 8 8 5 7 7 7 5 7 7 6 7 7 8 7 6 5 2 3 2 6 2 3 3 1 3 4 2 4 4 4
10 11 11 10 10 10 11 10 12 9 8 8 8 7 7 6 10 9 7 4 5 4 4 4 6 6 5 7 7 3 4 3 3 5 4 2 3 3 5 2 4 4 4
11 10 9 9 11 12 10 10 9 10 8 6 8 10 12 8 7 8 10 9 7 5 6 6 6 6 3 4 4 5 4 4 3 2 3 4 3 4 4 2 3 4 3
12 10 8 12 12 9 9 9 11 13 11 9 10 9 10 9 9 12 11 8 7 7 8 7 8 8 7 5 4 4 3 2 3 2 2 4 4 4 3 4 4 4 5
Wind_Direction
114 127 128 129 121 118 111 108 104 97 85 87 96 93 87 81 76 72 69 68 66 65 61 57 54 47 40 34 24 10 357 343 330 313 304 292 159 126 90 51 5 79 60
115 131 134 137 135 137 134 133 137 133 121 85 59 48 47 49 44 43 49 62 74 77 71 61 51 42 34 26 19 7 349 333 324 310 309 286 201 158 114 84 55 74 64
120 130 144 147 151 153 153 156 151 138 124 112 99 90 74 62 48 38 31 31 40 58 61 55 45 44 43 34 19 0 344 331 325 316 312 283 161 135 84 81 72 71 81
126 149 144 157 158 163 165 166 167 158 164 167 166 175 170 165 136 96 26 359 0 21 50 61 64 55 47 28 12 355 334 331 326 318 302 39 96 103 82 73 76 64 61
134 158 143 160 163 164 163 169 168 174 181 191 243 250 238 227 212 221 253 283 300 312 335 9 53 70 53 32 6 347 331 325 326 311 322 71 71 55 60 40 75 82 43
145 135 149 156 159 161 163 172 178 189 194 211 234 253 267 270 265 256 262 271 273 279 280 267 253 154 71 40 4 340 327 319 327 325 87 70 60 52 45 28 25 44 55
129 126 143 145 152 162 172 181 186 193 199 210 227 253 290 290 283 282 282 277 268 263 256 255 250 227 183 353 349 328 317 312 322 318 78 71 68 53 37 27 13 10 12
118 126 135 150 163 173 183 189 190 194 200 211 226 232 266 290 293 292 279 275 271 268 270 268 259 226 233 302 326 315 304 303 319 344 96 80 75 67 53 31 19 11 348
115 132 148 170 184 191 190 190 188 192 207 202 229 240 209 286 291 291 347 331 286 256 242 241 242 220 234 252 282 298 296 299 310 301 105 97 89 69 47 38 29 13 360
42 138 143 176 184 199 186 165 138 263 214 199 213 274 26 352 303 13 29 8 317 271 239 218 202 209 222 230 237 264 273 290 280 238 89 103 78 58 48 36 15 6 360
352 317 88 53 110 217 162 166 183 191 198 187 206 86 88 79 273 236 100 125 246 261 264 229 201 201 214 230 238 251 265 264 272 88 113 112 91 81 44 13 356 346 341
247 267 34 41 18 4 147 171 178 165 154 181 246 277 239 189 234 253 219 205 229 252 167 252 206 202 219 230 223 242 252 251 295 141 126 125 113 102 60 346 329 323 314
237 24 31 53 35 27 5 332 106 163 185 238 230 244 264 256 240 231 240 237 227 188 180 203 210 226 217 228 233 228 237 230 260 284 138 139 135 140 140 305 309 305 301
58 30 43 59 38 44 341 9 308 162 164 208 226 242 220 255 294 275 298 326 322 141 153 195 204 231 227 238 241 228 264 270 261 258 152 162 173 167 188 237 271 291 290
41 41 37 56 44 39 12 346 333 296 160 206 202 232 274 7 317 313 320 307 263 158 175 238 250 215 251 202 210 251 290 245 8 29 241 185 196 185 207 225 236 256 282
33 29 34 48 48 14 13 349 302 295 285 300 13 24 13 327 348 329 5 19 307 356 355 30 274 269 197 214 68 49 51 11 4 359 322 231 203 200 212 225 230 237 260
46 32 12 21 29 11 359 324 311 325 22 16 47 55 252 352 359 3 357 302 318 340 20 289 359 1 25 360 35 29 356 95 72 280 274 319 305 251 221 226 231 237 256
45 37 36 27 15 359 344 330 336 54 66 97 45 20 22 30 22 5 31 13 347 343 353 25 31 158 278 142 252 288 281 197 206 235 255 283 283 312 259 227 224 224 234
47 36 33 29 9 352 358 358 351 9 45 64 65 56 43 36 22 5 8 350 344 1 354 359 345 1 327 310 304 275 237 207 218 226 239 236 267 277 285 345 354 200 223
48 39 32 37 14 355 10 7 356 348 6 24 40 39 32 32 25 17 1 2 360 346 332 334 327 317 277 276 283 309 277 249 231 228 220 251 317 302 91 63 357 310 344
54 52 41 35 27 11 12 14 0 349 3 36 56 47 38 30 19 14 4 351 6 351 341 5 1 344 339 337 352 332 275 250 327 26 51 67 354 355 354 353 253 281 322
75 65 52 36 39 28 1 19 354 351 360 9 37 45 23 32 24 24 18 11 359 344 5 14 12 351 326 352 339 315 316 332 197 64 79 18 345 311 326 330 10 336 311
86 75 60 51 32 38 13 19 3 358 1 13 356 16 339 39 44 51 53 15 350 0 1 360 358 346 326 321 318 310 327 337 340 311 189 203 252 300 292 319 303 262 277
63 79 69 61 45 38 32 28 14 358 7 28 352 356 342 33 38 54 28 14 340 336 353 340 328 319 330 324 334 9 330 257 288 325 344 273 196 260 271 273 283 292 278
50 49 75 71 54 39 35 39 24 7 360 16 352 0 5 43 54 23 18 359 357 343 338 324 311 307 309 306 309 329 329 324 320 295 298 317 336 301 277 250 311 294 303
53 29 61 66 49 28 35 37 38 13 9 29 7 7 356 5 358 19 2 349 352 354 341 346 334 331 327 324 319 319 330 299 309 298 298 297 304 308 319 27 32 12 357